Temperature
19 20 20 20 20 20 20 20 20 20 20 20 20 20 19 19 19 19 19 19 19 19 19 19 19 19 19 18 18 18 18 18 18 18 18 18 18 18 18 18 18 18 18
20 20 20 20 20 20 20 20 20 20 20 20 20 20 19 19 19 19 19 19 19 19 19 19 19 19 18 18 18 18 18 18 18 18 18 18 18 18 18 18 18 18 18
20 20 20 20 20 20 20 20 20 20 20 20 20 20 20 19 19 19 19 19 19 19 19 19 19 19 18 18 18 18 18 18 18 18 18 18 18 18 18 18 18 18 18
21 20 20 20 20 20 20 20 20 20 20 20 20 20 20 20 19 19 19 19 19 19 19 19 19 19 19 18 18 18 18 18 18 18 18 18 18 18 18 18 18 18 18
21 20 20 20 20 20 20 20 20 20 20 20 20 20 20 20 19 19 19 19 19 19 19 19 19 19 19 18 18 18 18 18 18 18 18 18 18 18 18 18 18 18 17
21 20 20 20 20 20 20 20 20 20 20 20 20 20 20 19 19 19 19 19 19 19 19 19 19 19 19 18 18 18 18 18 18 18 18 18 18 18 18 18 18 18 17
21 21 21 20 20 20 20 20 20 20 20 20 20 20 19 19 19 19 19 19 19 19 19 19 19 19 18 18 18 18 18 18 18 18 18 18 18 18 18 18 18 18 17
21 21 21 20 20 20 20 20 20 20 20 20 20 19 19 19 19 19 19 19 19 19 19 19 19 19 19 18 18 18 18 18 18 18 18 18 18 18 18 18 18 17 17
21 21 21 20 20 20 20 20 20 20 20 20 20 19 19 19 19 19 19 19 19 19 19 19 19 19 18 18 18 18 18 18 18 18 18 18 18 18 18 18 18 17 17
21 21 21 20 20 20 20 20 20 20 20 20 20 19 19 19 19 19 19 19 19 19 19 19 19 19 18 18 18 18 18 18 18 18 18 18 18 18 18 18 18 17 17
21 21 21 21 20 20 20 20 20 20 20 20 19 19 19 19 19 19 19 19 19 19 19 19 19 18 18 18 18 18 18 18 18 18 18 18 18 18 18 18 18 17 17
21 21 21 21 20 20 20 20 20 20 20 20 19 19 19 19 19 19 19 19 19 19 19 19 18 18 18 18 18 18 18 18 18 18 18 18 18 18 18 18 18 17 17
21 21 21 21 21 20 20 20 20 20 20 20 19 19 19 19 19 19 19 19 19 19 19 19 18 18 18 18 18 18 18 18 18 18 18 18 18 18 18 17 17 17 17
21 21 21 21 21 20 20 20 20 20 20 20 19 19 19 19 19 19 19 19 19 19 18 18 18 18 18 18 18 18 18 18 18 18 18 18 18 18 18 17 17 17 17
21 21 21 21 21 20 20 20 20 20 20 20 19 19 19 19 19 19 19 19 19 18 18 18 18 18 18 18 18 18 18 18 18 18 18 18 18 18 18 17 17 17 17
21 21 21 21 21 21 20 20 20 20 20 20 19 19 19 19 19 19 19 19 19 18 18 18 18 18 18 18 18 18 18 18 18 18 18 18 18 18 18 17 17 17 17
22 21 21 21 21 21 20 20 20 20 20 20 19 19 19 19 19 19 19 19 18 18 18 18 18 18 18 18 18 18 18 18 18 18 18 18 18 18 18 18 17 17 17
22 22 21 21 21 21 20 20 20 20 20 20 19 19 19 19 19 19 19 18 18 18 18 18 18 18 18 18 18 18 18 18 18 18 18 18 18 18 18 18 17 17 17
22 22 21 21 21 21 20 20 20 20 19 19 19 19 19 19 19 19 19 19 18 18 18 18 18 18 18 18 18 18 18 18 18 18 18 18 18 18 18 18 17 17 17
22 22 21 21 21 21 20 20 20 19 19 19 19 19 19 19 19 19 19 18 18 18 18 18 18 18 18 18 18 18 18 18 18 18 18 18 18 18 18 18 18 17 17
22 22 21 21 21 20 20 20 20 20 19 19 19 19 19 19 19 19 19 18 18 18 18 18 18 18 18 18 18 18 18 18 18 18 18 18 18 18 18 18 18 18 17
22 22 21 21 21 21 20 20 20 19 19 19 19 19 19 19 19 19 19 19 18 18 18 18 18 18 18 18 18 18 18 18 18 18 18 18 18 18 18 18 17 17 17
22 22 21 21 21 21 20 20 19 19 19 19 19 19 19 19 19 19 19 18 18 18 18 18 18 18 18 18 18 17 17 17 17 18 18 18 18 18 18 18 17 17 17
22 22 21 21 21 21 20 20 20 19 19 19 19 19 19 19 19 18 18 18 18 18 18 18 18 18 18 18 18 17 17 17 17 17 18 17 17 17 17 17 17 17 17
22 22 22 21 21 21 20 20 20 19 19 19 19 19 19 19 18 18 18 18 18 18 18 18 18 18 17 17 17 17 17 17 17 17 17 17 17 17 17 17 17 17 17
22 22 22 21 21 20 20 20 20 20 19 19 19 19 19 18 18 18 18 18 18 18 18 18 18 17 17 17 17 17 17 17 17 17 17 17 17 17 17 17 17 17 17
Wind_Speed
3 5 11 12 13 13 13 13 14 14 14 14 15 15 15 15 15 15 15 15 15 14 13 13 13 13 13 13 13 12 12 11 10 10 10 10 10 10 10 11 11 10 12
7 8 11 12 12 12 13 13 14 13 13 14 14 15 15 14 14 14 14 14 14 14 13 13 13 12 12 12 12 11 11 10 10 9 9 9 10 10 10 10 10 10 12
9 9 11 11 12 12 12 13 14 13 13 13 14 14 14 14 14 14 14 13 13 13 13 12 12 12 12 12 11 10 10 9 8 8 8 7 8 9 10 10 10 11 11
9 9 10 11 11 11 11 13 14 14 14 13 13 13 13 13 13 13 13 12 12 12 12 12 12 11 11 10 10 10 9 8 8 7 6 6 6 8 9 9 10 11 10
8 8 11 12 11 11 12 13 14 14 14 13 13 13 12 12 12 12 12 12 11 11 11 11 11 10 10 10 9 8 8 7 7 6 5 5 5 7 9 9 9 10 10
8 9 11 13 12 12 12 14 15 14 14 13 13 12 12 11 11 11 11 10 10 10 10 10 10 10 9 9 8 8 6 6 6 5 5 5 6 9 9 9 9 9 9
8 8 11 13 12 12 13 14 14 14 13 12 12 11 11 11 10 10 10 9 9 9 9 9 9 9 8 8 7 7 6 6 5 5 5 7 9 10 10 10 9 9 9
10 8 10 12 12 12 13 13 13 13 12 11 10 10 9 9 9 9 9 9 8 8 8 8 8 8 7 6 6 6 5 5 5 6 6 8 10 11 11 10 10 9 9
9 8 7 9 10 12 12 12 12 12 11 10 9 9 8 8 8 8 8 7 7 7 7 7 7 7 6 5 5 5 4 4 4 6 7 7 11 13 12 11 9 9 9
8 7 7 7 8 8 9 11 11 11 10 9 8 8 7 7 7 7 6 6 6 7 7 7 6 6 5 5 4 4 3 3 5 6 7 8 12 13 12 11 10 9 9
8 6 6 6 6 7 7 9 10 10 9 8 7 7 6 4 4 5 6 6 6 6 7 6 5 5 4 3 4 3 2 3 4 5 7 10 13 13 12 11 11 10 9
8 7 6 7 6 6 7 7 6 6 6 5 5 5 5 4 4 5 5 5 4 5 5 5 5 4 3 3 3 2 2 4 4 5 7 12 13 13 12 12 11 11 10
9 8 7 7 6 5 4 5 4 4 4 5 5 5 5 4 3 3 2 3 2 3 3 3 2 2 2 2 2 2 3 4 4 5 8 12 13 13 13 12 11 11 11
9 9 8 7 6 5 4 4 4 3 3 3 4 5 5 2 2 2 1 2 1 2 2 2 2 2 2 3 3 3 3 4 4 5 8 12 13 13 12 12 11 11 11
9 9 8 7 7 5 5 4 4 3 4 4 4 5 5 3 2 2 1 2 2 2 2 2 1 1 2 2 3 3 3 4 5 6 8 12 14 14 13 12 12 12 11
9 9 8 8 7 6 5 4 3 4 4 4 4 4 5 4 3 2 2 1 1 2 2 2 2 1 1 1 1 2 3 3 5 7 8 10 13 14 14 13 12 12 12
9 9 8 8 7 7 6 5 4 4 5 3 3 4 4 4 3 2 2 1 1 2 2 1 1 0 0 0 1 1 2 3 4 6 8 8 10 13 14 14 13 12 12
10 9 8 8 7 6 5 4 4 4 4 3 3 3 3 3 3 2 2 1 1 2 2 1 1 1 1 0 1 2 2 2 3 5 6 8 8 9 12 13 13 12 12
10 10 8 7 7 6 5 4 4 4 4 3 3 2 3 4 4 3 2 1 1 1 1 1 1 1 0 1 2 2 2 2 3 3 4 6 7 8 9 10 11 11 11
10 9 9 7 6 6 4 4 3 3 2 2 2 2 4 4 5 4 2 1 1 1 1 0 0 0 1 1 1 1 1 1 1 2 3 4 5 7 8 8 8 9 10
10 9 8 7 6 5 4 4 3 2 2 2 2 2 3 3 4 3 2 2 2 2 2 1 1 1 1 0 1 2 2 2 1 1 1 2 3 5 6 7 7 6 6
10 9 8 7 6 6 4 4 3 3 2 2 1 1 2 2 3 4 3 3 2 2 2 1 1 1 0 1 2 1 2 3 3 1 0 1 2 2 3 6 6 6 6
10 10 9 7 6 6 5 3 3 2 2 1 1 1 1 2 2 2 3 2 2 3 2 2 2 2 1 1 1 2 2 2 2 3 1 0 0 1 2 3 5 6 6
10 9 8 7 6 6 6 5 6 4 3 3 2 2 1 1 2 2 2 2 2 2 2 1 2 2 2 0 1 0 2 3 2 2 3 2 1 1 2 3 3 5 6
11 10 8 7 6 6 6 6 6 4 3 2 2 2 1 0 1 2 2 2 2 1 1 1 1 1 1 1 0 0 0 0 1 2 2 3 2 2 2 3 2 3 5
10 9 8 8 6 6 6 6 6 6 5 4 3 3 1 1 0 1 2 1 1 1 1 1 1 1 1 1 1 0 1 1 1 2 2 2 2 3 2 2 2 2 4
Wind_Direction
151 152 130 124 121 120 118 118 117 114 112 112 113 114 116 118 122 124 127 129 130 129 129 129 132 134 132 132 134 135 135 136 139 140 139 138 136 132 131 133 131 129 133
155 151 135 129 125 124 122 120 120 118 116 114 115 116 118 120 122 125 126 128 131 131 131 129 132 133 135 138 136 136 137 139 138 141 138 138 140 138 135 136 135 137 137
143 144 138 133 131 130 129 127 126 121 118 118 118 119 120 122 122 124 125 127 130 132 132 132 132 134 137 140 138 138 140 143 144 144 140 135 139 139 138 138 142 144 144
141 144 140 135 131 131 132 134 133 128 124 122 122 121 123 122 124 124 126 129 132 134 137 138 139 140 141 143 146 146 144 144 149 147 140 141 143 144 144 143 146 149 151
137 143 144 136 130 130 133 136 136 133 130 126 124 122 122 123 124 127 130 133 136 141 144 147 147 146 148 152 155 153 153 151 155 149 140 145 151 157 155 154 153 153 155
140 146 145 138 133 132 136 138 138 136 133 130 129 127 127 129 131 133 135 138 142 146 150 153 156 156 159 162 163 164 166 162 157 151 155 164 168 168 163 161 162 162 159
142 146 145 141 137 134 137 139 140 139 135 133 131 130 131 135 139 139 143 147 151 155 159 161 162 163 167 172 173 177 179 174 160 155 165 165 169 167 165 163 162 161 166
144 143 144 143 140 139 139 141 141 141 139 137 135 134 133 134 141 146 151 154 159 165 170 171 167 170 177 185 190 191 193 185 164 157 164 168 174 171 168 164 162 163 163
141 141 140 147 147 144 144 145 145 144 144 141 139 138 138 139 143 149 153 156 161 167 173 178 180 183 193 203 210 206 206 191 161 154 168 172 174 171 166 165 165 165 169
139 143 147 149 150 150 152 151 152 150 149 147 142 143 142 142 148 153 154 157 163 172 176 181 187 194 204 211 214 217 218 175 165 171 172 179 179 175 171 171 171 172 173
142 147 148 149 151 156 159 158 159 157 155 149 144 143 141 136 140 151 155 156 164 175 179 186 191 197 209 217 217 223 217 162 164 170 175 181 181 177 175 177 176 175 174
156 159 154 152 156 161 163 157 160 156 156 148 142 140 138 137 147 151 157 158 159 174 181 185 197 208 220 227 221 207 180 176 171 175 179 182 184 184 183 184 183 182 183
165 161 162 161 159 155 151 152 158 153 150 144 140 145 140 137 144 148 153 162 171 180 184 178 187 219 222 224 222 198 183 179 188 189 186 185 187 190 189 189 191 192 193
154 159 158 157 151 149 143 151 153 151 150 146 148 147 140 136 145 165 158 169 175 184 173 177 186 197 227 230 215 199 183 184 184 186 195 192 190 193 192 193 197 200 200
153 157 157 154 151 150 144 151 147 153 150 153 153 151 146 145 145 153 155 160 164 182 170 162 178 203 212 226 208 184 180 182 179 189 198 197 197 198 197 198 202 203 201
156 155 153 154 154 144 142 142 146 151 149 146 148 154 151 152 150 148 139 145 156 175 184 176 181 196 207 206 218 191 188 189 182 187 198 200 200 202 203 205 206 208 206
156 153 152 153 149 142 145 150 142 149 148 146 151 154 151 148 152 152 142 150 167 172 148 148 135 37 342 259 269 234 215 205 195 192 197 200 205 209 209 209 209 209 209
151 150 155 150 144 141 138 136 141 146 150 156 162 158 153 146 148 138 138 165 183 153 130 115 94 74 359 313 266 262 240 232 216 202 198 200 204 208 212 215 214 215 215
152 149 146 144 146 145 140 133 135 138 150 160 158 161 160 157 155 149 147 173 170 128 103 125 107 126 340 297 267 261 254 246 237 214 196 194 197 200 202 208 212 217 222
150 147 145 145 147 143 133 123 119 120 139 144 150 163 158 160 156 152 155 172 161 124 104 92 119 122 214 245 283 298 284 264 246 222 204 194 193 198 199 202 207 218 223
147 146 150 148 151 145 140 141 142 152 147 141 164 161 157 159 159 157 173 183 171 165 191 201 150 96 342 78 61 359 350 340 318 252 213 183 198 201 193 196 196 199 214
155 155 154 157 158 158 161 160 154 153 160 155 147 132 143 148 162 171 171 182 175 165 165 159 134 116 326 101 126 88 5 348 334 315 260 189 212 194 190 197 197 196 199
161 162 162 163 162 163 156 134 120 98 85 85 90 135 165 139 147 153 169 174 168 160 169 177 160 145 174 323 130 139 145 235 298 327 325 329 205 191 212 198 195 201 204
167 162 160 160 160 162 155 149 149 152 160 179 175 172 176 141 145 142 150 157 159 157 158 176 151 148 145 218 310 182 175 172 173 306 326 320 260 233 234 226 217 203 203
166 164 162 155 157 159 156 158 154 158 163 153 140 135 136 109 119 127 122 139 148 154 150 136 121 127 144 165 182 312 10 199 151 171 275 313 326 292 253 238 224 204 201
164 161 158 156 162 162 159 157 160 160 153 141 137 144 152 140 132 107 109 123 149 150 153 161 140 124 132 133 137 166 187 196 213 181 221 268 281 288 283 247 222 214 206
Height
1506 1506 1506 1505 1505 1504 1504 1505 1506 1507 1508 1508 1509 1510 1512 1513 1514 1515 1516 1517 1519 1520 1521 1522 1523 1525 1526 1527 1529 1530 1531 1532 1534 1535 1536 1537 1538 1539 1540 1541 1541 1542 1543
1506 1506 1506 1506 1505 1504 1504 1505 1506 1507 1508 1510 1511 1512 1513 1514 1515 1516 1518 1519 1520 1521 1522 1523 1524 1526 1527 1528 1530 1531 1532 1533 1534 1535 1537 1538 1539 1539 1540 1541 1542 1542 1543
1507 1507 1507 1506 1505 1503 1503 1504 1506 1508 1509 1510 1512 1513 1514 1515 1516 1517 1519 1520 1521 1522 1523 1524 1525 1526 1528 1529 1530 1531 1532 1533 1535 1536 1537 1538 1539 1540 1540 1541 1542 1543 1544
1507 1507 1507 1506 1504 1502 1501 1502 1505 1508 1510 1511 1512 1514 1515 1516 1517 1518 1519 1520 1521 1522 1523 1525 1526 1527 1528 1529 1530 1531 1533 1534 1535 1536 1537 1538 1539 1540 1541 1541 1542 1543 1544
1508 1508 1508 1506 1504 1501 1500 1501 1505 1508 1511 1512 1513 1514 1516 1517 1517 1519 1520 1521 1522 1523 1524 1525 1526 1527 1528 1530 1530 1531 1533 1534 1535 1536 1537 1538 1539 1540 1541 1541 1542 1543 1543
1509 1509 1509 1508 1506 1503 1501 1503 1506 1510 1512 1514 1515 1516 1516 1517 1518 1519 1520 1521 1522 1523 1524 1525 1526 1528 1529 1530 1531 1532 1533 1534 1535 1536 1537 1538 1538 1539 1540 1541 1542 1542 1543
1510 1511 1511 1510 1508 1506 1505 1507 1509 1512 1514 1515 1516 1517 1518 1518 1519 1520 1520 1521 1522 1523 1524 1525 1527 1528 1529 1530 1531 1532 1532 1533 1534 1535 1536 1537 1538 1539 1540 1540 1541 1542 1543
1512 1512 1512 1512 1512 1511 1510 1511 1513 1514 1516 1517 1518 1518 1519 1519 1519 1520 1520 1521 1522 1523 1525 1526 1527 1528 1529 1530 1531 1532 1532 1533 1534 1535 1536 1537 1538 1538 1539 1540 1541 1542 1542
1513 1514 1514 1514 1514 1514 1515 1515 1516 1517 1518 1519 1519 1519 1519 1519 1519 1519 1520 1521 1522 1523 1525 1526 1527 1528 1529 1530 1531 1532 1532 1533 1534 1535 1535 1536 1537 1538 1539 1540 1541 1541 1542
1515 1515 1516 1516 1516 1517 1517 1518 1519 1519 1519 1520 1520 1520 1520 1519 1519 1519 1520 1521 1522 1523 1524 1526 1527 1528 1529 1530 1531 1531 1532 1533 1533 1534 1535 1535 1536 1537 1538 1539 1540 1541 1542
1516 1517 1517 1517 1518 1519 1519 1520 1520 1521 1521 1521 1521 1521 1520 1519 1518 1519 1520 1521 1522 1523 1524 1526 1527 1529 1529 1530 1531 1531 1532 1532 1533 1533 1534 1535 1536 1537 1537 1538 1539 1540 1541
1516 1517 1518 1519 1519 1520 1520 1521 1522 1522 1522 1522 1522 1522 1521 1521 1520 1520 1521 1522 1523 1524 1525 1526 1528 1529 1530 1530 1531 1531 1532 1532 1532 1533 1533 1534 1535 1536 1537 1537 1538 1539 1540
1516 1517 1518 1519 1520 1521 1521 1522 1523 1523 1524 1524 1524 1523 1523 1523 1522 1522 1523 1523 1524 1525 1525 1527 1528 1528 1529 1530 1530 1531 1531 1531 1532 1532 1533 1533 1534 1535 1536 1537 1537 1538 1539
1517 1518 1519 1520 1521 1522 1522 1523 1524 1524 1525 1525 1525 1525 1524 1524 1524 1524 1524 1524 1525 1525 1526 1527 1528 1528 1529 1529 1530 1531 1531 1531 1531 1531 1532 1533 1533 1534 1535 1536 1536 1537 1537
1517 1518 1519 1520 1521 1522 1523 1524 1524 1525 1525 1525 1526 1526 1525 1525 1525 1525 1525 1525 1525 1526 1526 1527 1528 1528 1528 1529 1530 1530 1530 1531 1531 1531 1532 1532 1533 1534 1534 1535 1535 1536 1537
1517 1518 1519 1520 1521 1522 1523 1524 1525 1525 1526 1526 1526 1526 1526 1526 1526 1526 1526 1526 1526 1527 1527 1528 1528 1528 1528 1529 1530 1530 1531 1531 1531 1531 1532 1532 1533 1533 1533 1534 1534 1535 1535
1516 1518 1519 1520 1522 1523 1523 1524 1525 1525 1526 1526 1527 1527 1527 1527 1527 1527 1527 1527 1527 1527 1528 1528 1528 1528 1528 1529 1529 1530 1531 1531 1531 1531 1531 1532 1532 1532 1533 1533 1533 1534 1534
1516 1518 1519 1520 1522 1523 1523 1524 1525 1526 1526 1527 1527 1527 1527 1528 1528 1528 1527 1527 1527 1528 1528 1528 1528 1528 1528 1529 1529 1530 1530 1530 1531 1530 1531 1531 1531 1531 1532 1532 1532 1533 1533
1516 1517 1519 1520 1522 1523 1524 1524 1525 1526 1526 1527 1527 1527 1527 1527 1528 1528 1528 1528 1528 1528 1528 1528 1529 1529 1529 1529 1529 1529 1529 1530 1530 1530 1530 1530 1530 1530 1530 1531 1531 1531 1531
1515 1517 1518 1520 1521 1522 1523 1524 1525 1525 1526 1526 1527 1527 1527 1528 1528 1528 1528 1528 1528 1528 1528 1528 1528 1528 1528 1528 1528 1529 1529 1529 1529 1529 1529 1529 1529 1529 1529 1529 1530 1530 1530
1515 1516 1518 1519 1520 1521 1522 1523 1524 1524 1525 1526 1526 1527 1527 1527 1527 1527 1528 1528 1528 1528 1527 1528 1528 1528 1528 1528 1528 1527 1528 1528 1528 1528 1528 1528 1527 1527 1528 1528 1528 1528 1528
1513 1515 1517 1518 1519 1520 1521 1522 1523 1523 1524 1525 1526 1526 1526 1527 1527 1527 1527 1527 1527 1527 1527 1527 1527 1527 1527 1527 1527 1527 1526 1528 1527 1527 1527 1526 1526 1526 1527 1527 1527 1527 1527
1512 1513 1515 1516 1518 1519 1520 1521 1522 1522 1523 1524 1525 1525 1526 1526 1526 1526 1526 1526 1526 1526 1526 1526 1526 1526 1526 1526 1527 1527 1526 1526 1525 1526 1526 1526 1526 1525 1525 1526 1526 1525 1525
1510 1512 1514 1515 1516 1517 1518 1519 1519 1520 1521 1522 1523 1524 1525 1525 1525 1525 1525 1525 1525 1526 1525 1525 1526 1525 1525 1525 1525 1525 1526 1525 1525 1524 1525 1525 1525 1524 1524 1524 1524 1524 1524
1509 1511 1513 1514 1515 1516 1517 1517 1518 1519 1520 1521 1522 1523 1524 1524 1524 1524 1524 1524 1525 1525 1525 1525 1525 1524 1524 1524 1524 1524 1524 1524 1524 1524 1523 1523 1523 1523 1523 1523 1522 1522 1522
1508 1510 1511 1513 1514 1515 1515 1516 1517 1518 1519 1520 1521 1522 1522 1523 1523 1523 1524 1524 1524 1524 1524 1524 1523 1523 1523 1523 1523 1523 1523 1522 1522 1522 1522 1521 1521 1522 1522 1521 1521 1520 1520